一网星座-0067星 (ONEWEB-0067 )

导读

ONEWEB-0067是英国OneWeb卫星互联网星座的组网卫星,于2020年3月21日发射入轨,属于低轨通信卫星。它是OneWeb一期星座的组成部分,单星重量约147.5公斤,设计寿命5年,配备Ku/Ka波段天线与霍尔效应推进器,单星通信能力约7.5Gbps,助力构建全球宽带卫星互联网,为偏远地区提供高速网络接入服务。

基本信息
目录编号:
45425
目录名称:
ONEWEB-0067
国际标识:
2020-020B
轨道中心:
EARTH
卫星名称:
一网星座-0067星
卫星全名:
一网星座-0067星 (ONEWEB-0067 )
卫星状态:
在轨 (已飞行2274 天)
发射日期:
2020-03-21 UTC
国别 :
英国 (GB)
星等 :
--
轨道信息
数据来源 国际轨道数据 AOE轨道数据
星历时间 2026-06-12T11:34:35+0800
16小时前
查看轨道信息
2026-06-11T04:00:00+0800
2天前
查看轨道信息
半长轴 7595.8km 7595.797km
偏心率 0.0001967 0.0002615
轨道倾角 87.891° 87.890°
近地点辐角 82.325° 65.710°
升交点赤经 21.995° 22.255°
平近点角 277.810° 206.463°
近地点 1216.168km 1215.673km
远地点 1219.158km 1219.647km
周期 109.804分钟 109.804分钟
每日圈数 13.114221 13.11423
详细信息
平衡模式:
三轴稳定
覆盖范围:
全球
运营商:
一网卫星公司
运营商所在国:
英国
制造商(研发单位):
一网卫星公司
制造商所在国:
英国
使用方式:
暂无
卫星简介
OneWeb卫星网络由648颗重约125公斤的微型卫星组成,运行在1200公里的轨道上。 每颗卫星都能够提供至少每秒8千兆位的吞吐量,以使用其高吞吐量的Ku频段有效载荷为家庭和移动平台提供互联网接入。该卫星仍在工作。
2D轨道图
3D轨道图
轨道高度分析图
轨道倾角分析图
轨道综合分析图
查看轨道综合分析图